Limon, CO

6:16 PM MST on November 24, 2017 (GMT -0700)
Limon Municipal

Weather History for KLIC - October, 2012

Change the Weather History Date:

Thursday, October 11, 2012

  Actual Average Record
Temperature  
Mean Temperature 51 °F -  
Max Temperature 70 °F - 86 °F (1996)
Min Temperature 32 °F - 18 °F (2001)
Degree Days  
Heating Degree Days 14    
Month to date heating degree days 224  
Cooling Degree Days 0    
Month to date cooling degree days 0  
Growing Degree Days 1 (Base 50)    
Moisture  
Dew Point 31 °F    
Average Humidity 55    
Maximum Humidity 82    
Minimum Humidity 23    
Precipitation  
Precipitation 0.00 in - 0.37 in (2008)
Month to date precipitation 0.09  
Year to date precipitation 8.74  
Sea Level Pressure  
Sea Level Pressure 30.04 in    
Wind  
Wind Speed 7 mph (NNE)    
Max Wind Speed 23 mph    
Max Gust Speed 26 mph    
Visibility 10 miles    
Events      
T = Trace of Precipitation, MM = Missing Value Source: NWS Daily Summary

Daily Weather History Graph

Daily Weather History Graph

Search for Another Location

Airport or City:

Trip Planner

Search our weather history database for the weather conditions in past years. The results will help you decide how hot, cold, wet, or windy it might be!

Date:

Astronomy

Oct. 11, 2012 Rise Set
Actual Time 7:00 AM MDT 6:20 PM MDT
Civil Twilight 6:34 AM MDT 6:47 PM MDT
Nautical Twilight 6:03 AM MDT 7:18 PM MDT
Astronomical Twilight 5:31 AM MDT 7:49 PM MDT
Moon 2:43 AM MDT (10/11) 3:57 PM MDT (10/11)
Length of Visible Light 12h 13m
Length of Day
11h 19m
Waning Crescent, 18% of the Moon is Illuminated
Oct 11
Waning Crescent
Oct 15
New
Oct 21
First Quarter
Oct 29
Full
Nov 6
Last Quarter

Hourly Weather History & Observations

Time (MDT) Temp. Windchill Dew Point Humidity Pressure Visibility Wind Dir Wind Speed Gust Speed Precip Events Conditions
12:55 AM 33.1 °F 27.7 °F 27.0 °F 78% 29.95 in 10.0 mi North 5.8 mph - N/A   Clear
1:55 AM 34.0 °F - 28.0 °F 79% 29.95 in 10.0 mi Calm Calm - N/A   Clear
2:55 AM 34.0 °F 28.0 °F 28.0 °F 79% 29.94 in 10.0 mi North 6.9 mph - N/A   Clear
3:55 AM 35.1 °F 27.9 °F 28.9 °F 78% 29.93 in 10.0 mi NNW 9.2 mph - N/A   Clear
4:55 AM 46.0 °F 42.5 °F 28.9 °F 51% 29.91 in 10.0 mi North 6.9 mph - N/A   Clear
5:55 AM 37.0 °F 34.5 °F 28.0 °F 70% 29.96 in 10.0 mi North 3.5 mph - N/A   Clear
6:55 AM 36.0 °F 32.1 °F 27.0 °F 70% 30.01 in 10.0 mi NNW 4.6 mph - N/A   Clear
7:55 AM 48.9 °F - 28.9 °F 46% 29.99 in 10.0 mi Calm Calm - N/A   Clear
8:55 AM 55.0 °F - 30.9 °F 40% 29.99 in 10.0 mi NW 4.6 mph - N/A   Clear
9:55 AM 69.1 °F - 30.0 °F 23% 29.97 in 10.0 mi NNW 6.9 mph - N/A   Clear
10:55 AM 69.1 °F - 30.0 °F 23% 30.01 in 10.0 mi North 16.1 mph - N/A   Clear
11:55 AM 69.1 °F - 33.1 °F 26% 30.03 in 10.0 mi North 15.0 mph - N/A   Clear
12:55 PM 68.0 °F - 37.0 °F 32% 30.03 in 10.0 mi NNE 16.1 mph 23.0 mph N/A   Clear
1:55 PM 68.0 °F - 36.0 °F 31% 30.01 in 10.0 mi NNE 15.0 mph - N/A   Clear
2:55 PM 66.9 °F - 34.0 °F 30% 30.03 in 10.0 mi NE 16.1 mph 23.0 mph N/A   Clear
4:55 PM 61.0 °F - 34.0 °F 36% 30.03 in 10.0 mi NE 17.3 mph 24.2 mph N/A   Clear
5:55 PM 55.0 °F - 34.0 °F 45% 30.11 in 10.0 mi ENE 12.7 mph 17.3 mph N/A   Clear
7:55 PM 43.0 °F 41.3 °F 30.9 °F 62% 30.20 in 10.0 mi East 3.5 mph - N/A   Clear
8:55 PM 39.0 °F 33.4 °F 30.0 °F 70% 30.22 in 10.0 mi ENE 8.1 mph - N/A   Clear
9:55 PM 37.9 °F 34.4 °F 30.0 °F 73% 30.17 in 10.0 mi ENE 4.6 mph - N/A   Clear
10:55 PM 36.0 °F 32.1 °F 30.0 °F 79% 30.19 in 10.0 mi SSE 4.6 mph - N/A   Clear
11:55 PM 33.1 °F - 28.0 °F 82% 30.19 in 10.0 mi Calm Calm - N/A   Clear